sat.trackr.live / text

‹ back to catalog

STARLINK-2667

NORAD 48663 · 2021-044AB

PAYLOAD ACTIVE UNKNOWN

§ Identity

Operator
Country
US
Launch date
2021-05-26
Launch site
AFETR
Launch vehicle
Mass (kg)
RCS (m²)

Purposes: comms

External: N2YO · Heavens-Above · Gunter

§ Orbital elements

Epoch: 2026-09-15T12:06:55.355904Z

Period
94.01 min
Inclination
53.1571°
Eccentricity
0.0001585
Mean motion
15.31707840 rev/d
Perigee alt
469.6 km
Apogee alt
471.8 km
Semi-major
6,848.9 km
B*
1.5529e-5
RAAN
300.5354°
Arg perigee
94.6140°
Mean anomaly
265.5043°
Rev number
29,305

§ Raw data

STARLINK-26671 48663U 21044AB  26258.50480736  .00000117  00000+0  15529-4 0  99982 48663  53.1571 300.5354 0001585  94.6140 265.5043 15.31707840293054

JSON: /api/v1/satellites/48663 · /tle

For live sub-satellite position, see the globe view (requires WebGL).

§ Visibility from observer

Set your observer location to see the next 7 days of passes ≥ 10°. The values pass through the URL so the page stays shareable.

No JS? Fill the form by hand. The geolocation button needs JavaScript.